Weather in Pogorelka

Russia / Yaroslavl Oblast     57°31′07″N   38°59′37″E
temp.,
°C
wind,
m/s
gust,
m/s
humid.,
%
clouds,
%
prec.,
mm/h
press.,
hPa
HPBL,
m
21 january, fri
fri2100:00−4s51291100 0.1 1000676
03:00−6sse51294100 0.6 1000542
06:00−6sse41195100 0.6 1000456
09:00−7sse41094100 0.9 1000401
12:00−7se41094100 0.9 1000464
15:00−6se51194100 2.0 999601
18:00−7se41095100 0.9 1000610
21:00−7se41095100 1.5 1000500
22 january, sat
sat2200:00−7se4995100 0.6 1002395
03:00−7ese3895100 1.3 1003362
06:00−8ese3896100 0.3 1005262
09:00−9ese399591 0.3 1007283
12:00−7ese499398 0.1 1009457
15:00−6ese3893100 0.3 1011476
18:00−7ese399587 0.2 1014372
21:00−9e379680 0.3 1016212
23 january, sun
sun2300:00−11e259887 0.1 1019104
03:00−14e239990 0.1 102155
06:00−17ene1110099 0.0 102414
09:00−18e1110091 0.1 102710
12:00−10ene0194100 0.0 1028118
15:00−9nne1196100 0.1 103016
18:00−16nne1110086 0.0 10339
21:00−18ene1110099 0.0 10359
24 january, mon
mon2400:00−19ene00100100 0.0 10379
03:00−19sse11100100 0.0 10379
06:00−20n11100100 0.0 103813
09:00−20ese22100100 0.1 103817
12:00−11se239585 0.0 1037132
15:00−10ese119612 0.0 103518
18:00−17ese1110074 0.0 10359
21:00−18ese11100100 0.0 103413
25 january, tue
tue2500:00−15se24100100 0.0 103253
03:00−18sse22100100 0.1 103034
06:00−19sse22100100 0.0 102843
09:00−18sse25100100 0.0 102774
12:00−11s259399 0.0 1025171
15:00−9sse2595100 0.0 1024237
18:00−13sse2897100 0.0 1024146
21:00−15sse269865 0.0 102594